Cloud_Cover
100 100 100 100 100 100 100 100 100 100 100 100 100 100 100 100 100 100 100 100 100 100 100 100 100 100 100 92 100 98 100 100 100 80 15 8 5 5 34 26 16 33 72 46 62 100 78 5 4 45 96 100 100 100
100 100 100 100 100 100 100 100 100 100 100 100 100 100 100 100 100 100 100 100 100 100 100 100 100 100 100 100 100 100 100 98 71 28 55 4 5 5 5 5 36 95 86 71 87 78 20 100 97 100 100 100 100 100
100 100 100 100 100 100 100 100 100 100 100 100 100 100 100 100 100 100 100 100 100 100 100 100 100 100 100 100 100 36 6 85 5 5 5 5 5 5 5 5 7 5 46 92 43 5 4 83 100 68 96 100 100 100
100 100 100 100 100 100 100 100 100 100 100 100 100 100 100 100 100 100 100 100 100 100 100 100 100 100 92 44 39 19 6 5 4 7 90 46 5 0 5 0 0 2 5 4 0 1 0 0 36 100 100 100 100 100
100 100 100 100 100 100 100 100 100 100 100 100 100 100 100 100 100 100 100 100 100 100 100 97 26 30 5 5 5 5 5 5 5 5 34 44 4 4 0 1 3 0 0 0 0 0 0 0 0 0 7 9 100 100
100 100 100 100 100 100 100 100 100 100 100 100 100 100 100 100 100 100 100 100 100 100 99 79 10 5 5 5 1 0 0 2 5 22 31 5 0 13 65 54 0 0 1 44 27 5 0 0 0 0 0 0 9 100
100 100 100 100 100 100 100 100 100 100 100 100 100 100 100 100 100 100 100 100 100 100 79 23 5 5 0 0 1 1 1 5 7 91 78 5 3 4 37 63 5 97 100 63 100 100 32 7 5 0 0 0 0 11
100 100 100 100 100 100 100 100 100 100 100 100 100 100 100 100 100 100 100 100 57 15 6 66 6 4 0 5 5 5 6 39 6 43 33 5 22 31 87 97 56 61 64 99 100 100 99 67 5 5 5 2 0 0
100 100 100 100 100 100 100 100 100 100 100 100 100 100 100 100 85 61 16 35 43 34 68 48 13 5 0 3 4 5 6 75 53 86 86 59 67 56 98 100 100 100 100 100 100 100 100 68 43 7 5 5 10 2
100 100 100 100 100 100 100 100 100 100 100 99 66 34 13 99 34 76 10 53 26 78 100 87 6 5 2 1 5 5 38 64 99 31 47 95 94 100 100 100 100 100 100 100 100 100 99 99 96 58 64 47 17 5
100 100 100 100 100 100 100 98 89 37 27 26 22 52 76 15 68 49 70 21 43 14 21 16 11 5 0 5 10 5 6 44 97 58 100 97 100 100 100 100 100 100 100 100 100 100 100 100 100 99 99 88 52 14
100 100 100 100 100 100 100 71 44 38 9 5 7 5 5 40 41 16 90 59 7 23 5 5 5 5 9 14 75 22 46 91 83 79 100 100 100 100 100 100 100 100 100 100 100 100 100 100 100 100 100 100 90 71
100 100 100 73 57 100 92 99 90 96 36 8 5 13 21 55 79 15 6 5 43 5 5 20 5 5 7 42 74 80 69 87 94 100 81 100 100 100 100 100 100 100 100 100 100 100 100 100 100 100 92 86 71 22
96 36 6 21 38 7 6 7 5 5 5 9 8 2 5 67 29 7 5 6 5 8 12 54 5 6 47 36 93 97 73 100 100 99 100 100 100 100 100 100 100 100 100 100 100 100 100 100 100 100 100 100 13 5
46 67 64 34 26 31 19 5 2 1 5 51 7 17 82 11 48 61 68 27 9 5 5 18 28 47 60 91 75 56 99 91 88 100 99 100 100 100 100 100 100 100 100 100 100 100 100 100 100 100 100 100 6 5
52 8 5 5 5 5 4 16 5 5 39 63 66 69 62 43 32 75 75 55 9 52 72 54 84 94 66 53 96 99 100 68 98 99 99 100 100 100 100 100 100 100 100 100 100 100 100 100 94 87 95 65 5 13
2 5 5 4 60 21 47 71 77 72 18 89 97 82 68 97 66 47 63 55 80 81 88 96 100 66 40 99 88 100 100 98 87 100 92 100 100 100 100 100 100 100 100 100 100 100 100 100 100 100 95 100 100 100
5 5 20 29 2 9 66 96 90 99 88 94 84 60 94 59 70 70 58 76 96 95 76 100 92 76 69 100 100 100 100 93 66 69 84 100 100 100 96 100 100 100 100 100 100 100 100 100 100 100 99 100 100 100
4 9 85 14 5 31 66 80 80 79 82 99 100 99 87 55 57 45 80 78 91 100 100 88 87 91 42 43 100 100 89 100 100 100 100 81 100 100 99 100 100 100 100 100 100 100 100 100 100 100 100 100 100 100
62 60 34 5 5 20 40 80 82 100 100 73 74 90 82 77 83 100 100 96 100 96 100 98 47 7 74 100 100 96 93 75 100 100 100 100 97 88 100 100 100 100 100 100 100 100 100 100 100 100 100 100 100 100
17 100 100 84 10 23 62 84 90 94 93 84 94 82 87 95 100 100 100 100 100 100 96 66 92 100 100 100 100 82 69 88 100 100 100 100 100 100 97 100 100 100 100 100 100 100 100 100 100 100 100 100 100 100
85 73 46 94 81 63 76 67 78 91 84 92 83 94 100 98 99 99 98 100 97 89 100 94 92 100 100 100 96 59 87 97 92 94 96 100 100 100 100 94 100 100 100 100 100 100 100 100 100 100 100 100 100 100
63 31 52 80 92 88 77 99 70 63 56 37 40 59 67 91 97 82 86 97 96 96 81 87 100 100 100 98 88 99 94 97 98 97 92 100 100 100 100 100 100 100 100 100 100 100 100 100 100 100 100 100 100 100
54 67 97 79 74 71 60 35 30 34 27 15 100 46 52 83 100 100 100 100 100 100 100 100 100 100 100 100 100 100 100 100 99 100 100 100 100 100 100 100 100 100 100 100 100 100 100 100 100 100 100 100 100 100
70 79 47 80 80 69 24 16 37 9 5 57 53 11 84 100 100 100 100 100 100 100 100 100 100 100 100 100 100 100 100 100 100 100 100 100 100 100 100 100 100 100 100 100 100 100 100 100 100 100 100 100 100 100
84 52 49 74 81 16 56 5 38 6 39 66 32 66 100 100 100 100 100 100 100 100 100 100 100 100 100 100 100 100 100 100 100 100 100 100 100 100 100 100 100 100 100 100 100 100 100 100 100 100 100 100 100 100
94 47 57 76 94 71 9 42 33 50 89 74 35 80 100 100 100 100 100 100 100 100 100 100 100 100 100 100 100 100 100 100 100 100 100 100 100 100 100 100 100 100 100 100 100 100 100 100 100 100 100 100 100 100
74 84 88 94 91 65 30 56 69 64 53 15 75 64 81 100 100 100 100 100 100 100 100 100 100 100 100 100 100 100 100 100 100 100 100 100 100 100 100 100 100 100 100 100 100 100 100 100 100 100 100 100 100 100
40 30 5 68 38 83 52 5 27 23 38 37 62 89 99 100 100 100 100 100 100 100 100 100 100 100 100 100 100 100 100 100 100 100 100 100 100 100 100 100 100 100 100 100 100 100 100 100 100 100 100 100 100 100
48 69 49 82 61 39 67 72 44 60 36 71 82 39 46 69 100 99 100 100 100 100 100 100 100 100 100 100 100 100 100 100 100 100 100 100 100 100 100 100 100 100 100 100 100 100 100 100 100 100 100 100 100 100
89 46 13 51 47 61 60 37 56 5 56 73 61 93 66 82 99 99 100 100 100 100 100 100 100 100 100 100 100 100 100 100 100 100 100 100 100 100 100 100 100 100 100 100 100 100 100 100 100 100 100 100 100 100
75 91 43 54 22 54 57 70 84 80 90 86 84 88 94 95 100 100 100 100 100 100 100 100 100 100 100 100 100 100 100 100 100 100 100 100 100 100 100 100 100 100 100 100 100 100 100 100 100 100 100 100 100 100
74 82 87 61 57 58 52 58 81 48 82 86 74 84 74 82 100 87 100 100 100 100 100 100 100 100 100 100 100 100 100 100 100 100 100 100 100 100 100 100 100 100 100 100 100 100 100 100 100 100 100 100 100 100